Date String (YYYY-MM-DD hh:mm:ss) UTC,Instrument flags,Ambient pressure (hPa),Sample flow (lpm),Bypass flow (lpm),Sample temperature (°C),Ambient temperature (°C),ASC tube jacket temperature (°C),LED temperature (°C),Box temperature (°C),Sample RH (%),Span deviation,Mass concentration (μg/m³),Mass concentration (μg/m³),Mass concentration (μg/m³)
DateTimeUTC,F1_M11,P_M11,Q1_M11,Q2_M11,T1_M11,T2_M11,T3_M11,T4_M11,T5_M11,U1_M11,ZSPAN_M11,X0_M11,X2_M11,X1_M11
2023-02-18 20:00:00,,0817.5,5.01,0.00,22.1,20.4,00.0,31.1,23.8,04.4,0000.0,0006.49,0001.71,0000.99
2023-02-18 20:01:00,,0817.6,4.99,0.00,22.1,20.4,00.0,31.0,23.8,04.5,0000.0,0006.51,0001.72,0000.98
2023-02-18 20:02:00,,0817.6,4.98,0.00,22.1,20.4,00.0,31.0,23.8,04.6,0000.0,0006.38,0001.67,0000.97
2023-02-18 20:03:00,,0817.6,4.98,0.00,22.1,20.4,00.0,31.0,23.8,04.5,0000.0,0006.42,0001.70,0000.98
2023-02-18 20:04:00,,0817.6,4.99,0.00,22.0,20.4,00.0,31.0,23.7,04.5,0000.0,0006.44,0001.71,0000.97
2023-02-18 20:05:00,,0817.6,5.00,0.00,22.0,20.4,00.0,31.0,23.7,04.7,0000.0,0007.28,0001.73,0000.97
2023-02-18 20:06:00,,0817.5,5.00,0.00,22.0,20.3,00.0,31.0,23.7,04.3,0000.0,0006.19,0001.71,0000.97
2023-02-18 20:07:00,,0817.4,5.00,0.00,22.0,20.3,00.0,31.0,23.7,04.5,0000.0,0004.80,0001.71,0000.97
2023-02-18 20:08:00,,0817.4,5.01,0.00,22.0,20.3,00.0,30.9,23.7,04.4,0000.0,0005.00,0001.66,0000.96
2023-02-18 20:09:00,,0817.6,5.01,0.00,22.0,20.3,00.0,30.9,23.6,04.1,0000.0,0004.77,0001.64,0000.96
2023-02-18 20:10:00,,0817.6,5.01,0.00,21.9,20.3,00.0,30.9,23.7,04.3,0000.0,0005.07,0001.68,0000.96
2023-02-18 20:11:00,,0817.5,5.00,0.00,21.9,20.2,00.0,30.9,23.6,04.4,0000.0,0005.50,0001.69,0000.95
2023-02-18 20:12:00,,0817.6,5.00,0.00,21.9,20.2,00.0,30.9,23.6,04.8,0000.0,0005.47,0001.67,0000.95
2023-02-18 20:13:00,,0817.5,5.00,0.00,21.9,20.2,00.0,30.9,23.7,04.7,0000.0,0005.37,0001.65,0000.94
2023-02-18 20:14:00,,0817.5,5.02,0.00,22.0,20.9,00.0,30.8,23.8,04.7,0000.0,0005.37,0001.65,0000.94
2023-02-18 20:15:00,,0817.5,5.02,0.00,22.1,22.3,00.0,30.8,24.1,04.2,0000.0,0005.47,0001.67,0000.93
2023-02-18 20:16:00,,0817.6,5.01,0.00,22.2,23.4,00.0,30.8,24.4,04.4,0000.0,0004.23,0001.61,0000.92
2023-02-18 20:17:00,,0817.5,4.99,0.00,22.3,23.0,00.0,30.9,24.5,04.6,0000.0,0004.12,0001.60,0000.92
2023-02-18 20:18:00,,0817.5,4.98,0.00,22.4,22.5,00.0,31.0,24.4,04.8,0000.0,0004.67,0001.66,0000.92
2023-02-18 20:19:00,,0817.3,5.01,0.00,22.4,22.0,00.0,31.0,24.3,04.8,0000.0,0004.43,0001.69,0000.93
2023-02-18 20:20:00,,0817.4,4.98,0.00,22.4,21.7,00.0,31.1,24.2,04.1,0000.0,0004.33,0001.66,0000.93
2023-02-18 20:21:00,,0817.4,5.03,0.00,22.4,21.6,00.0,31.1,24.2,04.4,0000.0,0004.14,0001.67,0000.93
2023-02-18 20:22:00,,0817.4,5.01,0.00,22.4,21.4,00.0,31.1,24.2,04.2,0000.0,0003.80,0001.66,0000.93
2023-02-18 20:23:00,,0817.5,5.00,0.00,22.4,21.3,00.0,31.1,24.1,03.8,0000.0,0003.85,0001.63,0000.92
2023-02-18 20:24:00,,0817.5,5.00,0.00,22.4,21.1,00.0,31.1,24.1,04.0,0000.0,0004.84,0001.64,0000.92
2023-02-18 20:25:00,,0817.5,5.00,0.00,22.4,21.0,00.0,31.2,24.1,04.9,0000.0,0004.84,0001.61,0000.92
2023-02-18 20:26:00,,0817.4,4.99,0.00,22.3,21.0,00.0,31.2,24.2,04.9,0000.0,0004.77,0001.56,0000.92
2023-02-18 20:27:00,,0817.4,5.01,0.00,22.3,20.9,00.0,31.2,24.1,04.7,0000.0,0004.96,0001.54,0000.92
2023-02-18 20:28:00,,0817.4,5.00,0.00,22.3,20.8,00.0,31.2,24.1,04.5,0000.0,0005.29,0001.52,0000.91
2023-02-18 20:29:00,,0817.4,5.01,0.00,22.3,20.8,00.0,31.2,24.0,04.6,0000.0,0005.04,0001.45,0000.91
2023-02-18 20:30:00,,0817.5,5.00,0.00,22.3,20.7,00.0,31.2,24.0,05.0,0000.0,0004.65,0001.42,0000.91
2023-02-18 20:31:00,,0817.5,5.00,0.00,22.3,20.7,00.0,31.2,24.0,05.1,0000.0,0004.85,0001.46,0000.91
2023-02-18 20:32:00,,0817.5,5.01,0.00,22.2,20.6,00.0,31.2,24.0,05.0,0000.0,0005.11,0001.48,0000.90
2023-02-18 20:33:00,,0817.4,4.99,0.00,22.2,20.6,00.0,31.2,23.9,05.0,0000.0,0005.07,0001.49,0000.90
2023-02-18 20:34:00,,0817.4,5.00,0.00,22.2,20.6,00.0,31.1,23.9,05.0,0000.0,0005.21,0001.55,0000.91
2023-02-18 20:35:00,,0817.4,5.00,0.00,22.2,20.6,00.0,31.1,23.9,04.5,0000.0,0004.70,0001.57,0000.93
2023-02-18 20:36:00,,0817.4,4.99,0.00,22.2,20.5,00.0,31.1,23.9,05.4,0000.0,0004.27,0001.61,0000.93
2023-02-18 20:37:00,,0817.5,5.01,0.00,22.1,20.5,00.0,31.1,23.9,05.4,0000.0,0004.25,0001.64,0000.94
2023-02-18 20:38:00,,0817.4,5.00,0.00,22.1,20.4,00.0,31.1,23.8,05.4,0000.0,0004.26,0001.65,0000.94
2023-02-18 20:39:00,,0817.4,5.01,0.00,22.1,20.5,00.0,31.1,23.9,05.3,0000.0,0003.85,0001.66,0000.95
2023-02-18 20:40:00,,0817.3,5.00,0.00,22.1,20.5,00.0,31.1,23.9,05.4,0000.0,0003.76,0001.63,0000.95
2023-02-18 20:41:00,,0817.3,5.01,0.00,22.1,20.4,00.0,31.1,23.8,05.5,0000.0,0003.68,0001.63,0000.95
2023-02-18 20:42:00,,0817.3,5.00,0.00,22.1,20.4,00.0,31.1,23.8,06.1,0000.0,0003.88,0001.60,0000.94
2023-02-18 20:43:00,,0817.4,5.00,0.00,22.1,20.4,00.0,31.0,23.8,04.7,0000.0,0003.48,0001.54,0000.94
2023-02-18 20:44:00,,0817.5,5.00,0.00,22.1,20.4,00.0,31.0,23.8,05.2,0000.0,0003.34,0001.50,0000.94
2023-02-18 20:45:00,,0817.5,5.01,0.00,22.1,20.4,00.0,31.0,23.8,05.2,0000.0,0003.84,0001.45,0000.93
2023-02-18 20:46:00,,0817.5,4.97,0.00,22.1,20.4,00.0,31.0,23.8,04.9,0000.0,0004.70,0001.44,0000.92
2023-02-18 20:47:00,,0817.5,4.99,0.00,22.0,20.5,00.0,31.0,23.8,05.1,0000.0,0005.16,0001.42,0000.91
2023-02-18 20:48:00,,0817.5,4.99,0.00,22.0,20.5,00.0,31.0,23.8,05.9,0000.0,0005.14,0001.40,0000.91
2023-02-18 20:49:00,,0817.4,5.01,0.00,22.0,20.5,00.0,31.0,23.8,06.3,0000.0,0005.15,0001.38,0000.90
2023-02-18 20:50:00,,0817.5,5.00,0.00,22.0,20.6,00.0,31.0,23.8,05.1,0000.0,0005.12,0001.37,0000.90
2023-02-18 20:51:00,,0817.5,5.00,0.00,22.0,20.5,00.0,31.0,23.8,04.6,0000.0,0005.14,0001.39,0000.89
2023-02-18 20:52:00,,0817.4,5.01,0.00,22.0,20.6,00.0,31.0,23.8,05.2,0000.0,0005.20,0001.38,0000.89
2023-02-18 20:53:00,,0817.3,4.97,0.00,22.0,20.6,00.0,31.0,23.8,04.7,0000.0,0004.66,0001.36,0000.89
2023-02-18 20:54:00,,0817.2,5.00,0.00,22.1,20.6,00.0,30.9,23.9,05.0,0000.0,0004.65,0001.37,0000.89
2023-02-18 20:55:00,,0817.2,4.99,0.00,22.1,20.7,00.0,30.9,23.9,05.0,0000.0,0004.78,0001.42,0000.89
2023-02-18 20:56:00,,0817.3,5.01,0.00,22.1,20.7,00.0,30.9,23.9,05.8,0000.0,0004.88,0001.48,0000.90
2023-02-18 20:57:00,,0817.2,5.00,0.00,22.1,20.7,00.0,30.9,23.9,06.1,0000.0,0004.05,0001.57,0000.91
2023-02-18 20:58:00,,0817.1,4.99,0.00,22.1,20.7,00.0,30.9,23.9,05.4,0000.0,0003.59,0001.57,0000.92
2023-02-18 20:59:00,,0817.1,5.01,0.00,22.1,20.7,00.0,30.9,23.9,05.8,0000.0,0003.60,0001.58,0000.92
